Time,TemperatureF,DewpointF,PressureIn,WindDirection,WindDirectionDegrees,WindSpeedMPH,WindSpeedGustMPH,Humidity,HourlyPrecipIn,Conditions,Clouds,dailyrainin,SoftwareType,DateUTC
2013-10-19 00:12:00,32.0,27.0,29.99,South,188,2.0,5.0,80,0.00,,,0.01,,2013-10-19 06:12:00,
2013-10-19 00:21:00,32.0,26.0,29.99,WSW,247,3.0,4.0,79,0.00,,,0.01,,2013-10-19 06:21:00,
2013-10-19 00:42:00,32.0,26.0,29.99,WSW,252,2.0,4.0,79,0.00,,,0.01,,2013-10-19 06:42:00,
2013-10-19 00:52:00,32.0,26.0,29.98,ESE,118,0.0,5.0,78,0.00,,,0.01,,2013-10-19 06:52:00,
2013-10-19 01:11:00,32.0,26.0,29.98,SSE,148,5.0,6.0,79,0.00,,,0.01,,2013-10-19 07:11:00,
2013-10-19 01:21:00,32.0,26.0,29.98,SE,132,0.0,3.0,78,0.00,,,0.01,,2013-10-19 07:21:00,
2013-10-19 01:42:00,31.0,26.0,29.98,SSE,155,2.0,3.0,80,0.00,,,0.01,,2013-10-19 07:42:00,
2013-10-19 01:52:00,31.0,26.0,29.97,SSE,164,4.0,6.0,81,0.00,,,0.01,,2013-10-19 07:52:00,
2013-10-19 02:11:00,31.0,26.0,29.97,West,267,3.0,5.0,80,0.00,,,0.01,,2013-10-19 08:11:00,
2013-10-19 02:22:00,32.0,26.0,29.97,West,267,1.0,3.0,79,0.00,,,0.01,,2013-10-19 08:22:00,
2013-10-19 02:42:00,31.0,26.0,29.96,SSW,213,0.0,4.0,80,0.00,,,0.01,,2013-10-19 08:42:00,
2013-10-19 02:52:00,31.0,26.0,29.96,South,191,1.0,3.0,81,0.00,,,0.01,,2013-10-19 08:52:00,
2013-10-19 03:11:00,31.0,26.0,29.95,WSW,242,1.0,4.0,80,0.00,,,0.01,,2013-10-19 09:11:00,
2013-10-19 03:54:00,30.0,25.0,29.94,ESE,115,0.0,2.0,80,0.00,,,0.01,,2013-10-19 09:54:00,
2013-10-19 04:13:00,30.0,25.0,29.93,SSW,197,1.0,3.0,80,0.00,,,0.01,,2013-10-19 10:13:00,
2013-10-19 04:53:00,30.0,25.0,29.93,SSE,162,2.0,4.0,80,0.00,,,0.01,,2013-10-19 10:53:00,
2013-10-19 05:22:00,30.0,25.0,29.93,WSW,243,1.0,6.0,82,0.00,,,0.01,,2013-10-19 11:22:00,
2013-10-19 05:42:00,30.0,25.0,29.93,ESE,108,1.0,4.0,80,0.00,,,0.01,,2013-10-19 11:42:00,
2013-10-19 06:11:00,30.0,25.0,29.93,SSW,206,2.0,7.0,81,0.00,,,0.01,,2013-10-19 12:11:00,
2013-10-19 06:21:00,30.0,25.0,29.93,SW,217,1.0,3.0,80,0.00,,,0.01,,2013-10-19 12:21:00,
2013-10-19 06:42:00,30.0,25.0,29.93,SSW,210,1.0,3.0,80,0.00,,,0.01,,2013-10-19 12:42:00,
2013-10-19 06:52:00,30.0,25.0,29.93,West,279,2.0,4.0,80,0.00,,,0.01,,2013-10-19 12:52:00,
2013-10-19 07:11:00,29.0,24.0,29.92,West,269,5.0,7.0,82,0.00,,,0.01,,2013-10-19 13:11:00,
2013-10-19 07:22:00,30.0,24.0,29.93,NW,310,1.0,6.0,78,0.00,,,0.01,,2013-10-19 13:22:00,
2013-10-19 07:42:00,30.0,24.0,29.93,WSW,237,2.0,4.0,79,0.00,,,0.01,,2013-10-19 13:42:00,
2013-10-19 07:52:00,30.0,25.0,29.92,WSW,254,2.0,5.0,80,0.00,,,0.01,,2013-10-19 13:52:00,
2013-10-19 08:11:00,29.0,24.0,29.92,SSW,200,2.0,4.0,81,0.00,,,0.01,,2013-10-19 14:11:00,
2013-10-19 08:21:00,31.0,25.0,29.92,South,184,2.0,4.0,79,0.00,,,0.01,,2013-10-19 14:21:00,
2013-10-19 08:42:00,31.0,26.0,29.93,SSW,205,1.0,3.0,80,0.00,,,0.01,,2013-10-19 14:42:00,
2013-10-19 08:52:00,31.0,26.0,29.93,SSW,211,2.0,3.0,81,0.00,,,0.01,,2013-10-19 14:52:00,
2013-10-19 09:11:00,32.0,27.0,29.93,South,174,0.0,3.0,81,0.00,,,0.01,,2013-10-19 15:11:00,
2013-10-19 09:22:00,34.0,28.0,29.93,SE,136,0.0,0.0,77,0.00,,,0.01,,2013-10-19 15:22:00,
2013-10-19 09:44:00,35.0,27.0,29.93,WSW,248,1.0,4.0,73,0.00,,,0.00,,2013-10-19 15:44:00,
2013-10-19 09:54:00,38.0,27.0,29.94,ESE,117,0.0,1.0,65,0.00,,,0.00,,2013-10-19 15:54:00,
2013-10-19 10:14:00,39.0,27.0,29.93,NE,44,0.0,3.0,63,0.00,,,0.00,,2013-10-19 16:14:00,
2013-10-19 10:24:00,41.0,29.0,29.93,ENE,61,1.0,3.0,61,0.00,,,0.00,,2013-10-19 16:24:00,
2013-10-19 10:42:00,41.0,29.0,29.93,ENE,63,2.0,4.0,62,0.00,,,0.00,,2013-10-19 16:42:00,
2013-10-19 10:53:00,41.0,29.0,29.93,East,81,2.0,7.0,62,0.00,,,0.00,,2013-10-19 16:53:00,
2013-10-19 11:13:00,42.0,29.0,29.92,ENE,72,3.0,4.0,60,0.00,,,0.00,,2013-10-19 17:13:00,
2013-10-19 11:22:00,43.0,30.0,29.93,SSE,153,1.0,4.0,60,0.00,,,0.00,,2013-10-19 17:22:00,
2013-10-19 11:43:00,44.0,31.0,29.92,NE,55,0.0,3.0,61,0.00,,,0.00,,2013-10-19 17:43:00,
2013-10-19 11:52:00,46.0,32.0,29.91,NE,42,2.0,5.0,59,0.00,,,0.00,,2013-10-19 17:52:00,
2013-10-19 12:12:00,47.0,33.0,29.91,NNE,12,3.0,7.0,57,0.00,,,0.00,,2013-10-19 18:12:00,
2013-10-19 12:21:00,47.0,31.0,29.90,ESE,119,2.0,7.0,54,0.00,,,0.00,,2013-10-19 18:21:00,
2013-10-19 12:32:00,47.0,31.0,29.90,ESE,119,2.0,7.0,54,0.00,,,0.00,,2013-10-19 18:32:00,
2013-10-19 12:42:00,47.0,31.0,29.90,ESE,119,2.0,7.0,54,0.00,,,0.00,,2013-10-19 18:42:00,
2013-10-19 12:52:00,48.0,29.0,29.90,NNE,24,6.0,10.0,48,0.00,,,0.00,,2013-10-19 18:52:00,
2013-10-19 13:12:00,49.0,29.0,29.89,ENE,59,6.0,10.0,46,0.00,,,0.00,,2013-10-19 19:12:00,
2013-10-19 13:22:00,50.0,27.0,29.87,NE,46,8.0,12.0,41,0.00,,,0.00,,2013-10-19 19:22:00,
2013-10-19 13:42:00,52.0,30.0,29.87,NE,36,6.0,12.0,43,0.00,,,0.00,,2013-10-19 19:42:00,
2013-10-19 13:52:00,52.0,30.0,29.86,NE,55,7.0,11.0,42,0.00,,,0.00,,2013-10-19 19:52:00,
2013-10-19 14:11:00,51.0,29.0,29.86,NE,53,6.0,12.0,43,0.00,,,0.00,,2013-10-19 20:11:00,
2013-10-19 14:22:00,52.0,30.0,29.86,NNE,30,8.0,11.0,43,0.00,,,0.00,,2013-10-19 20:22:00,
2013-10-19 14:42:00,53.0,31.0,29.85,North,355,6.0,12.0,42,0.00,,,0.00,,2013-10-19 20:42:00,
2013-10-19 14:52:00,53.0,31.0,29.85,ENE,59,4.0,12.0,42,0.00,,,0.00,,2013-10-19 20:52:00,
2013-10-19 15:11:00,53.0,29.0,29.85,NNE,26,9.0,12.0,40,0.00,,,0.00,,2013-10-19 21:11:00,
2013-10-19 15:21:00,54.0,30.0,29.85,NNE,26,9.0,13.0,40,0.00,,,0.00,,2013-10-19 21:21:00,
2013-10-19 15:44:00,54.0,30.0,29.85,North,355,7.0,14.0,39,0.00,,,0.00,,2013-10-19 21:44:00,
2013-10-19 15:54:00,55.0,31.0,29.84,North,355,10.0,13.0,39,0.00,,,0.00,,2013-10-19 21:54:00,
2013-10-19 16:13:00,54.0,29.0,29.85,North,355,6.0,12.0,38,0.00,,,0.00,,2013-10-19 22:13:00,
2013-10-19 16:24:00,53.0,31.0,29.85,North,350,7.0,11.0,43,0.00,,,0.00,,2013-10-19 22:24:00,
2013-10-19 16:43:00,54.0,33.0,29.85,North,355,7.0,11.0,44,0.00,,,0.00,,2013-10-19 22:43:00,
2013-10-19 16:53:00,53.0,31.0,29.85,NE,38,6.0,11.0,43,0.00,,,0.00,,2013-10-19 22:53:00,
2013-10-19 17:12:00,52.0,31.0,29.84,NE,39,6.0,11.0,45,0.00,,,0.00,,2013-10-19 23:12:00,
2013-10-19 17:22:00,52.0,32.0,29.84,NNE,29,4.0,7.0,46,0.00,,,0.00,,2013-10-19 23:22:00,
2013-10-19 17:42:00,51.0,33.0,29.84,NE,55,4.0,7.0,49,0.00,,,0.00,,2013-10-19 23:42:00,
2013-10-19 17:52:00,51.0,33.0,29.84,NE,44,4.0,6.0,50,0.00,,,0.00,,2013-10-19 23:52:00,
2013-10-19 18:11:00,50.0,33.0,29.84,NNE,30,3.0,5.0,51,0.00,,,0.00,,2013-10-20 00:11:00,
2013-10-19 18:22:00,50.0,35.0,29.84,South,187,3.0,4.0,56,0.00,,,0.00,,2013-10-20 00:22:00,
2013-10-19 18:42:00,49.0,34.0,29.83,SW,221,0.0,2.0,55,0.00,,,0.00,,2013-10-20 00:42:00,
2013-10-19 18:52:00,48.0,35.0,29.83,SW,221,0.0,2.0,60,0.00,,,0.00,,2013-10-20 00:52:00,
2013-10-19 19:11:00,47.0,34.0,29.83,NE,40,2.0,4.0,60,0.00,,,0.00,,2013-10-20 01:11:00,
2013-10-19 19:21:00,47.0,33.0,29.83,South,175,0.0,4.0,59,0.00,,,0.00,,2013-10-20 01:21:00,
2013-10-19 19:42:00,47.0,34.0,29.83,WSW,250,4.0,7.0,61,0.00,,,0.00,,2013-10-20 01:42:00,
2013-10-19 19:52:00,47.0,33.0,29.82,SW,229,0.0,4.0,59,0.00,,,0.00,,2013-10-20 01:52:00,
2013-10-19 20:11:00,46.0,34.0,29.82,NNW,331,3.0,5.0,62,0.00,,,0.00,,2013-10-20 02:11:00,
2013-10-19 20:22:00,46.0,34.0,29.81,West,280,2.0,5.0,62,0.00,,,0.00,,2013-10-20 02:22:00,
2013-10-19 20:42:00,46.0,33.0,29.81,WNW,292,3.0,5.0,60,0.00,,,0.00,,2013-10-20 02:42:00,
2013-10-19 20:52:00,46.0,33.0,29.81,WSW,242,1.0,4.0,60,0.00,,,0.00,,2013-10-20 02:52:00,
2013-10-19 21:11:00,46.0,33.0,29.82,SSW,211,2.0,6.0,60,0.00,,,0.00,,2013-10-20 03:11:00,
2013-10-19 21:21:00,48.0,30.0,29.83,NW,313,6.0,9.0,50,0.00,,,0.00,,2013-10-20 03:21:00,
2013-10-19 21:43:00,49.0,31.0,29.83,NE,46,3.0,8.0,49,0.00,,,0.00,,2013-10-20 03:43:00,
2013-10-19 21:54:00,48.0,32.0,29.84,SSW,211,3.0,7.0,54,0.00,,,0.00,,2013-10-20 03:54:00,
2013-10-19 22:02:00,-999.0,-99.9,29.84,South,170,4.0,7.0,-999,-99.99,,,-99.99,,2013-10-20 04:02:00,
2013-10-19 22:14:00,47.0,32.0,29.84,South,170,4.0,7.0,55,0.00,,,0.00,,2013-10-20 04:14:00,
2013-10-19 22:24:00,49.0,31.0,29.84,ESE,113,9.0,16.0,50,0.00,,,0.00,,2013-10-20 04:24:00,
2013-10-19 22:44:00,51.0,29.0,29.83,SSE,165,9.0,25.0,42,0.00,,,0.00,,2013-10-20 04:44:00,
2013-10-19 22:54:00,51.0,29.0,29.83,South,186,11.0,24.0,43,0.00,,,0.00,,2013-10-20 04:54:00,
2013-10-19 23:13:00,51.0,29.0,29.83,South,180,12.0,24.0,43,0.00,,,0.00,,2013-10-20 05:13:00,
2013-10-19 23:23:00,50.0,29.0,29.84,ENE,78,9.0,13.0,45,0.00,,,0.00,,2013-10-20 05:23:00,
2013-10-19 23:43:00,48.0,31.0,29.85,North,9,7.0,10.0,52,0.00,,,0.00,,2013-10-20 05:43:00,
2013-10-19 23:52:00,48.0,32.0,29.86,NNW,346,5.0,9.0,54,0.00,,,0.00,,2013-10-20 05:52:00,